Location: Czekanka
(50.4925°N, 19.2643°E)
Time: 01:11:00
(UTC+00:00)

CZ-2C R/B - Pass Details

Date: 22 September 2024
Orbit: 703 x 903 km, 98.2° (Epoch: 09 October)

Event Time Altitude Azimuth Distance (km) Brightness Sun altitude
Rises 01:10:17 0° 11° (NNE) 3,535 7.2 -29.6°
Reaches altitude 10° 01:12:44 10° 8° (N) 2,595 6.3 -29.3°
Enters shadow 01:17:52 57° 318° (NW) 1,056 3.6 -28.7°
